SB KEPS @ AMSAT $ORB10168.N 2Line Orbital Elements 10168.AMSAT
HR AMSAT ORBITAL ELEMENTS FOR AMATEUR SATELLITES IN NASA FORMAT FROM WA5QGD FORT WORTH,TX June 17, 2010 Send Subscribe/unsubscribe to KEPS at http://www.amsat.org/mailman/listinfo/keps BID: ORB10168.N
DECODE 2-LINE ELSETS WITH THE FOLLOWING KEY: 1 AAAAAU 00 0 0 BBBBB.BBBBBBBB .CCCCCCCC 00000-0 00000-0 0 DDDZ 2 AAAAA EEE.EEEE FFF.FFFF GGGGGGG HHH.HHHH III.IIII JJ.JJJJJJJJKKKKKZ KEY: A-CATALOGNUM B-EPOCHTIME C-DECAY D-ELSETNUM E-INCLINATION F-RAAN G-ECCENTRICITY H-ARGPERIGEE I-MNANOM J-MNMOTION K-ORBITNUM Z-CHECKSUM
TO ALL RADIO AMATEURS BT
AO-07 1 07530U 74089B 10168.60167851 -.00000027 00000-0 10000-3 0 8031 2 07530 101.4003 184.4522 0011630 274.6789 085.2953 12.53578647628507 FO-29 1 24278U 96046B 10167.95718020 -.00000042 00000-0 -10308-4 0 03397 2 24278 098.5143 357.1211 0351236 124.3796 239.1086 13.52951201683079 SO-33 1 25509U 98061B 10167.34992174 .00000069 00000-0 -22421-6 0 7350 2 25509 031.4326 153.2551 0354512 282.4854 073.6337 14.28308370607937 RS-22 1 27939U 03042A 10168.67088107 .00000104 00000-0 28813-4 0 2828 2 27939 097.8926 034.1366 0014650 060.6151 299.6507 14.63426601359021 VO-52 1 28650U 05017B 10167.59303739 .00000551 00000-0 76033-4 0 05303 2 28650 097.6918 221.0512 0025801 279.2989 080.5321 14.81761514276606 SO-67 1 35870U 09049F 10168.71822197 .00000521 00000-0 26559-4 0 8301 2 35870 097.3315 217.8402 0004709 092.1419 055.7592 15.20922096 41535 HO-68 1 36122U 09072B 10168.62819210 -.00000045 00000-0 00000 0 0 4069 2 36122 100.4684 229.0529 0007386 338.6004 021.4799 13.16281014 24270 UO-11 1 14781U 84021B 10167.88707613 -.00000153 00000-0 -13170-4 0 02698 2 14781 098.0550 219.6279 0008097 236.4847 123.5576 14.79808274411762 AO-16 1 20439U 90005D 10167.56002936 -.00000011 00000-0 11313-4 0 09231 2 20439 098.3324 125.4908 0011085 163.2265 196.9275 14.31863948065296 LO-19 1 20442U 90005G 10168.74561184 .00000000 00000-0 15397-4 0 8334 2 20442 098.2928 132.4287 0012325 155.1495 205.0285 14.32095224 65636 AO-27 1 22825U 93061C 10168.78316372 .00000066 00000-0 42894-4 0 5563 2 22825 098.4852 116.7181 0007456 267.9793 092.0537 14.29300161872131 IO-26 1 22826U 93061D 10167.79864064 -.00000010 00000-0 12817-4 0 2918 2 22826 098.4798 116.3607 0007993 266.5358 093.4912 14.29555789872105 GO-32 1 25397U 98043D 10167.67908821 .00000020 00000-0 26800-4 0 02126 2 25397 098.3113 175.1572 0000199 230.7714 129.3441 14.23179792619975 NO-44 1 26931U 01043C 10167.64439295 -.00000209 00000-0 -49221-4 0 4840 2 26931 067.0496 205.3724 0005607 262.3574 097.6903 14.29599254454675 SO-50 1 27607U 02058C 10168.68806310 .00000032 00000-0 26698-4 0 2011 2 27607 064.5586 354.9961 0034828 076.3888 284.1080 14.71548005402453 CO-55 1 27844U 03031E 10167.60212511 .00000047 00000-0 41869-4 0 08694 2 27844 098.7088 176.5841 0009878 166.8074 193.3363 14.20712924361003 CO-57 1 27848U 03031J 10168.54731237 .00000051 00000-0 44044-4 0 8203 2 27848 098.7131 176.6098 0009449 169.0529 191.0854 14.20505114361095 AO-51 1 28375U 04025K 10168.49620234 .00000022 00000-0 18948-4 0 7022 2 28375 098.0619 161.9745 0084850 095.8260 265.2613 14.40688148313554 GENESAT1 1 29655U 06058C 10168.70328519 .00147748 14379-4 38022-3 0 1110 2 29655 040.0195 025.3926 0010217 319.2290 040.8531 15.94354272200074 CP3 1 31129U 07012N 10168.76678814 .00000172 00000-0 50524-4 0 6042 2 31129 097.9369 208.3087 0100765 231.3266 127.8835 14.52267545167943 CO-65 1 32785U 08021C 10168.63732688 .00000317 00000-0 47012-4 0 7093 2 32785 097.8956 233.5582 0013791 285.1412 074.8263 14.81667474115558 KKS-1 1 33493U 09002B 10168.86239283 .00000330 00000-0 49586-4 0 5842 2 33493 098.0865 288.3599 0020963 136.0193 224.2692 14.81010496 75583 SOHLA-1 1 33496U 09002E 10167.88852577 .00000111 00000-0 27004-4 0 01319 2 33496 098.0600 276.9671 0006241 195.2438 164.8584 14.69498489074833 NOAA-10 1 16969U 86073A 10168.15298206 -.00000027 00000-0 69496-5 0 1018 2 16969 098.6548 197.1210 0011731 208.6168 151.4369 14.27419038235578 NOAA-11 1 19531U 88089A 10168.31103221 .00000006 00000-0 25369-4 0 1145 2 19531 098.7696 257.3331 0011792 143.9157 216.2833 14.14927687121154 NOAA-12 1 21263U 91032A 10168.42127201 .00000184 00000-0 96351-4 0 6004 2 21263 098.7638 181.5818 0012634 161.5395 198.6257 14.25639385992436 MET-3/5 1 21655U 91056A 10168.86392338 .00000051 00000-0 10000-3 0 8391 2 21655 082.5586 308.1555 0013293 353.8113 006.2790 13.17024192905765 MET-2/21 1 22782U 93055A 10168.72545451 .00000053 00000-0 34735-4 0 8052 2 22782 082.5484 252.0135 0023518 044.3628 315.9420 13.83646506848150 OKEAN-4 1 23317U 94066A 10168.72651907 .00000056 00000-0 39953-5 0 2611 2 23317 082.5404 353.3553 0020487 238.3882 121.5317 14.82825736846535 NOAA-14 1 23455U 94089A 10168.42510017 -.00000033 00000-0 59876-5 0 926 2 23455 098.8784 249.1666 0008604 232.9485 127.0900 14.13787640797531 NOAA-15 1 25338U 98030A 10168.29440627 .00000096 00000-0 59610-4 0 4132 2 25338 098.6187 155.2168 0011713 075.7852 284.4646 14.24833839628765 RESURS 1 25394U 98043A 10168.62887634 .00000013 00000-0 23109-4 0 5301 2 25394 098.3046 186.6844 0000795 177.0222 183.0959 14.24203357620413 FENGYUN1 1 25730U 99025A 10167.45280558 -.00000437 00000-0 -23032-3 0 00691 2 25730 098.7861 132.4274 0021652 274.6764 085.1938 14.08191823571580 OKEAN-0 1 25860U 99039A 10167.53345325 .00000019 00000-0 10252-4 0 00238 2 25860 097.8317 140.2529 0001896 079.3599 280.7815 14.73644283586807 NOAA-16 1 26536U 00055A 10168.29716711 .00000097 00000-0 77666-4 0 8904 2 26536 099.1699 185.7684 0010177 341.9193 018.1586 14.12564315501841 NOAA-17 1 27453U 02032A 10168.55824197 -.00000027 00000-0 62610-5 0 8916 2 27453 098.4309 218.9878 0012578 133.4255 226.7989 14.24165992414752 NOAA-18 1 28654U 05018A 10168.58387968 -.00000141 00000-0 -52969-4 0 3750 2 28654 098.9510 114.8470 0015309 054.3610 305.8970 14.11363194261498 NOAA-19 1 33591U 09005A 10168.57193180 -.00000127 00000-0 -46668-4 0 5728 2 33591 098.7895 110.6852 0013205 291.0145 068.9597 14.11059529 69966 HUBBLE 1 20580U 90037B 10167.58213882 .00000352 00000-0 14080-4 0 5854 2 20580 028.4697 243.8094 0003506 192.4456 167.6113 15.00986645904662 ISS 1 25544U 98067A 10169.01628935 .00007434 00000-0 60449-4 0 3428 2 25544 051.6478 226.3639 0009002 337.9392 086.0930 15.71871920663609 CO-58 1 28895U 05043F 10167.70728776 .00000349 00000-0 82303-4 0 6097 2 28895 098.0163 052.2010 0016574 288.4665 071.4761 14.59902138246913 FALCON 1 30776U 07006E 10167.94915607 .00000375 00000-0 29877-4 0 08690 2 30776 035.4341 045.7357 0001255 239.7126 120.3554 15.03686878180022 MAST 1 31126U 07012K 10167.60229238 .00000019 00000-0 14851-4 0 08914 2 31126 097.9366 209.6440 0093701 227.5533 131.7702 14.53594460167979 CAPE1 1 31130U 07012P 10167.72226271 -.00000071 00000-0 -56043-5 0 09131 2 31130 097.9372 207.1747 0101128 234.6241 124.5421 14.52186200167596 COMPASS 1 32787U 08021E 10167.15582752 .00000629 00000-0 86104-4 0 06995 2 32787 097.8926 231.9272 0014826 291.7834 068.1836 14.81889162115345 AAUSAT2 1 32788U 08021F 10167.76662798 .00000327 00000-0 47791-4 0 06941 2 32788 097.8918 232.6568 0014522 290.3679 069.5974 14.82031610115445 DO-64 1 32789U 08021G 10167.70807595 .00000525 00000-0 72465-4 0 07107 2 32789 097.9008 233.0718 0014389 287.8305 072.1306 14.82175495115435 CO-66 1 32791U 08021J 10167.17760339 .00000009 00000-0 78920-5 0 06935 2 32791 097.8967 231.9653 0014993 289.9639 069.9930 14.81670525115306 RS-30 1 32953U 08025A 10168.69276781 .00000010 00000-0 00000 0 0 7931 2 32953 082.5012 029.3649 0019808 099.5096 260.8222 12.43005490 93809 TACSAT-3 1 35001U 09028A 10167.52797451 .00002541 00000-0 63753-4 0 03201 2 35001 040.4545 218.0737 0021568 356.9422 003.1259 15.41799269060531 PHARMSAT 1 35002U 09028B 10167.54673035 .00002317 00000-0 57525-4 0 03015 2 35002 040.4682 215.9560 0024779 001.3421 358.7457 15.42325663060556 HAWKSAT1 1 35003U 09028C 10167.52166111 .00004977 00000-0 10570-3 0 3175 2 35003 040.4598 210.9353 0022423 015.1839 344.9649 15.45413543 60613 CP6 1 35004U 09028D 10167.51896916 .00006047 00000-0 12384-3 0 3139 2 35004 040.4601 210.0296 0021372 018.3141 341.8443 15.46239686 60612 AEROCUB3 1 35005U 09028E 10168.21895073 .00019982 00000-0 33203-3 0 3473 2 35005 040.4683 203.3273 0016670 038.4642 321.7511 15.51394789 60757 DRAGNSAT 1 35690U 09038B 10076.22711312 .05715194 12509-4 31481-3 0 3162 2 35690 051.6170 315.4586 0004999 310.9891 057.3269 16.42150010 36561 POLLUX 1 35693U 09038E 10087.99866888 .23496735 12787-4 17715-3 0 3529 2 35693 051.6099 254.5746 0006270 294.4866 097.5899 16.52338462 38395 CASTOR 1 35694U 09038F 10168.57986052 .00092287 15119-4 15501-3 0 4769 2 35694 051.6335 198.0248 0002513 009.0723 351.0341 16.02722851 51126 METEOR-M 1 35865U 09049A 10168.69724727 .00000176 00000-0 10000-3 0 3935 2 35865 098.7585 222.4926 0003074 019.1762 340.9482 14.21830590 38798 RS-38 1 35869U 09049E 10168.73905205 .00000177 00000-0 10000-3 0 4017 2 35869 098.7567 222.5664 0004948 014.7547 345.3746 14.21983510 38800 /EX